Weather History for Wichita Falls, TX

Change the Weather History Date:

Sunday, August 31, 2014

  Actual Average (KSPS) Record (KSPS)
Temperature  
Mean Temperature 86 °F 81 °F  
Max Temperature 100 °F 94 °F 108 °F (1939)
Min Temperature 72 °F 69 °F 57 °F (1988)
Cooling Degree Days 21 16  
Month to date cooling degree days 589  
Year to date cooling degree days 1945  
Growing Degree Days 36 (Base 50)    
Moisture  
Dew Point 65 °F    
Average Humidity 54    
Maximum Humidity 86    
Minimum Humidity 26    
Precipitation  
Precipitation 0.00 in 0.10 in 1.45 in (1916)
Month to date precipitation 2.50  
Year to date precipitation 19.73  
Sea Level Pressure  
Sea Level Pressure 29.89 in    
Wind  
Wind Speed 7 mph (South)    
Max Wind Speed 17 mph    
Max Gust Speed 31 mph    
Visibility 10 miles    
Events      
T = Trace of Precipitation, MM = Missing Value Source: NWS Daily Summary

Daily Weather History Graph

Daily Weather History Graph

Search for Another Location

Airport:

Trip Planner

Search our weather history database for the weather conditions in past years. The results will help you decide how hot, cold, wet, or windy it might be!

Date:

Astronomy

Aug. 31, 2014 Rise Set
Actual Time 7:07 AM CDT 8:00 PM CDT
Civil Twilight 6:41 AM CDT 8:26 PM CDT
Nautical Twilight 6:11 AM CDT 8:56 PM CDT
Astronomical Twilight 5:40 AM CDT 9:27 PM CDT
Moon 12:37 PM CDT (8/31) 11:34 PM CDT (8/31)
Length of Visible Light 13h 44m
Length of Day
12h 53m
Waxing Crescent, 32% of the Moon is Illuminated
Aug 31
Waxing Crescent
Sep 2
First Quarter
Sep 8
Full
Sep 15
Last Quarter
Sep 24
New

Hourly Weather History & Observations

Time (CDT) Temp. Heat Index Dew Point Humidity Pressure Visibility Wind Dir Wind Speed Gust Speed Precip Events Conditions
12:15 AM 78.8 °F - 66.2 °F 65% 29.93 in 10.0 mi SSW 4.6 mph - N/A   Clear
12:35 AM 78.1 °F - 66.6 °F 68% 29.93 in 10.0 mi SSW 3.5 mph - N/A   Clear
12:55 AM 77.9 °F - 67.1 °F 69% 29.93 in 10.0 mi Calm Calm - N/A   Clear
1:15 AM 77.0 °F - 66.9 °F 71% 29.92 in 10.0 mi South 3.5 mph - N/A   Clear
1:35 AM 76.8 °F - 67.1 °F 72% 29.92 in 10.0 mi SSW 3.5 mph - N/A   Clear
1:55 AM 76.3 °F - 67.5 °F 74% 29.92 in 10.0 mi SSW 3.5 mph - N/A   Clear
2:15 AM 76.1 °F - 67.5 °F 74% 29.91 in 10.0 mi SW 5.8 mph - N/A   Clear
2:35 AM 76.3 °F - 67.5 °F 74% 29.91 in 10.0 mi SSW 3.5 mph - N/A   Clear
2:55 AM 76.3 °F - 67.5 °F 74% 29.90 in 10.0 mi SSW 5.8 mph - N/A   Clear
3:15 AM 76.3 °F - 67.5 °F 74% 29.91 in 10.0 mi SSE 5.8 mph - N/A   Clear
3:35 AM 74.7 °F - 68.0 °F 80% 29.91 in 10.0 mi SSE 5.8 mph - N/A   Clear
3:55 AM 74.5 °F - 68.2 °F 81% 29.91 in 10.0 mi SSE 5.8 mph - N/A   Clear
4:15 AM 74.1 °F - 68.2 °F 82% 29.91 in 10.0 mi South 5.8 mph - N/A   Clear
4:35 AM 73.9 °F - 68.2 °F 82% 29.91 in 10.0 mi SSE 5.8 mph - N/A   Clear
4:55 AM 73.4 °F - 68.0 °F 83% 29.92 in 10.0 mi SE 5.8 mph - N/A   Clear
5:15 AM 73.6 °F - 68.2 °F 83% 29.92 in 10.0 mi SSE 5.8 mph - N/A   Clear
5:35 AM 73.8 °F - 68.2 °F 83% 29.92 in 10.0 mi SSE 4.6 mph - N/A   Clear
5:55 AM 73.4 °F - 68.4 °F 84% 29.92 in 10.0 mi SE 5.8 mph - N/A   Clear
6:15 AM 73.2 °F - 68.4 °F 85% 29.92 in 10.0 mi SE 5.8 mph - N/A   Clear
6:35 AM 72.9 °F - 68.5 °F 86% 29.92 in 10.0 mi SSE 5.8 mph - N/A   Clear
6:55 AM 72.9 °F - 68.4 °F 86% 29.93 in 10.0 mi SSE 5.8 mph - N/A   Clear
7:15 AM 73.0 °F - 68.4 °F 85% 29.94 in 10.0 mi South 4.6 mph - N/A   Clear
7:35 AM 73.4 °F - 68.5 °F 85% 29.95 in 10.0 mi SE 5.8 mph - N/A   Clear
7:55 AM 74.1 °F - 68.7 °F 83% 29.95 in 10.0 mi SSE 5.8 mph - N/A   Clear
8:15 AM 75.9 °F - 68.7 °F 78% 29.95 in 10.0 mi South 4.6 mph - N/A   Clear
8:35 AM 76.5 °F - 68.9 °F 77% 29.95 in 10.0 mi SSE 4.6 mph - N/A   Clear
8:55 AM 78.6 °F - 68.9 °F 72% 29.96 in 10.0 mi South 6.9 mph - N/A   Clear
9:15 AM 81.0 °F 83.9 °F 68.7 °F 66% 29.96 in 10.0 mi South 10.4 mph - N/A   Clear
9:35 AM 83.1 °F 86.1 °F 68.0 °F 60% 29.96 in 10.0 mi SSW 11.5 mph 16.1 mph N/A   Clear
9:55 AM 85.1 °F 88.2 °F 67.8 °F 56% 29.96 in 10.0 mi SSW 10.4 mph - N/A   Clear
10:15 AM 85.5 °F 88.5 °F 67.5 °F 55% 29.96 in 10.0 mi SW 10.4 mph 19.6 mph N/A   Clear
10:35 AM 87.1 °F 89.9 °F 67.1 °F 51% 29.96 in 10.0 mi SSW 10.4 mph 17.3 mph N/A   Clear
11:15 AM 90.5 °F 93.3 °F 66.2 °F 45% 29.95 in 10.0 mi SSW 11.5 mph 16.1 mph N/A   Clear
12:15 PM 93.9 °F 96.1 °F 65.1 °F 38% 29.93 in 10.0 mi South 9.2 mph 17.3 mph N/A   Clear
12:35 PM 95.5 °F 97.4 °F 63.7 °F 35% 29.92 in 10.0 mi SSW 10.4 mph 19.6 mph N/A   Clear
12:55 PM 95.7 °F 97.2 °F 63.1 °F 34% 29.91 in 10.0 mi SSW 12.7 mph 18.4 mph N/A   Scattered Clouds
1:15 PM 97.5 °F 99.7 °F 63.7 °F 33% 29.90 in 10.0 mi SW 13.8 mph 19.6 mph N/A   Scattered Clouds
1:35 PM 97.0 °F 98.8 °F 63.5 °F 33% 29.90 in 10.0 mi South 13.8 mph 20.7 mph N/A   Scattered Clouds
1:55 PM 98.6 °F 99.4 °F 61.7 °F 29% 29.89 in 10.0 mi South 9.2 mph 20.7 mph N/A   Scattered Clouds
2:15 PM 99.1 °F 99.3 °F 60.1 °F 27% 29.88 in 10.0 mi SSW 12.7 mph 21.9 mph N/A   Clear
2:35 PM 99.5 °F 100.9 °F 61.7 °F 29% 29.88 in 10.0 mi South 10.4 mph 20.7 mph N/A   Scattered Clouds
2:55 PM 99.9 °F 100.4 °F 60.6 °F 27% 29.87 in 10.0 mi SSW 11.5 mph 19.6 mph N/A   Scattered Clouds
3:15 PM 98.8 °F 99.2 °F 60.8 °F 28% 29.86 in 10.0 mi South 13.8 mph 18.4 mph N/A   Scattered Clouds
3:35 PM 100.2 °F 101.5 °F 61.7 °F 28% 29.85 in 10.0 mi South 11.5 mph 16.1 mph N/A   Scattered Clouds
3:55 PM 100.4 °F 101.3 °F 61.0 °F 27% 29.84 in 10.0 mi South 13.8 mph 18.4 mph N/A   Scattered Clouds
4:15 PM 99.3 °F 100.6 °F 61.7 °F 29% 29.84 in 10.0 mi SSE 13.8 mph 24.2 mph N/A   Scattered Clouds
4:35 PM 100.0 °F 100.7 °F 60.3 °F 27% 29.83 in 10.0 mi South 15.0 mph 23.0 mph N/A   Scattered Clouds
4:55 PM 99.0 °F 99.5 °F 60.6 °F 28% 29.83 in 10.0 mi SSE 16.1 mph 31.1 mph N/A   Scattered Clouds
5:15 PM 99.3 °F 99.1 °F 58.8 °F 26% 29.82 in 10.0 mi South 12.7 mph 20.7 mph N/A   Clear
5:35 PM 98.8 °F 98.7 °F 59.4 °F 27% 29.82 in 10.0 mi South 13.8 mph 20.7 mph N/A   Clear
5:55 PM 98.8 °F 98.7 °F 59.4 °F 27% 29.82 in 10.0 mi South 13.8 mph 23.0 mph N/A   Scattered Clouds
6:15 PM 98.1 °F 97.7 °F 58.8 °F 27% 29.82 in 10.0 mi South 17.3 mph 24.2 mph N/A   Clear
6:35 PM 97.5 °F 97.3 °F 59.0 °F 28% 29.82 in 10.0 mi South 12.7 mph 23.0 mph N/A   Clear
6:55 PM 96.6 °F 96.8 °F 60.3 °F 30% 29.82 in 10.0 mi SSE 12.7 mph 24.2 mph N/A   Clear
7:15 PM 95.7 °F 95.9 °F 60.3 °F 31% 29.81 in 10.0 mi South 11.5 mph 24.2 mph N/A   Clear
7:35 PM 94.5 °F 94.4 °F 60.3 °F 32% 29.81 in 10.0 mi SSE 13.8 mph 24.2 mph N/A   Clear
7:55 PM 93.2 °F 92.9 °F 59.9 °F 33% 29.81 in 10.0 mi SSE 13.8 mph 21.9 mph N/A   Clear
8:15 PM 91.8 °F 91.5 °F 60.3 °F 35% 29.81 in 10.0 mi SSE 12.7 mph 19.6 mph N/A   Clear
8:35 PM 90.7 °F 90.7 °F 61.3 °F 37% 29.81 in 10.0 mi SSE 13.8 mph 20.7 mph N/A   Clear
9:15 PM 88.9 °F 89.4 °F 62.6 °F 41% 29.81 in 10.0 mi SSE 13.8 mph 18.4 mph N/A   Clear
9:35 PM 88.7 °F 89.4 °F 62.8 °F 42% 29.81 in 10.0 mi SSE 12.7 mph 21.9 mph N/A   Clear
9:55 PM 88.0 °F 88.7 °F 62.8 °F 43% 29.81 in 10.0 mi SSE 12.7 mph 20.7 mph N/A   Clear
10:15 PM 86.9 °F 87.8 °F 63.0 °F 45% 29.81 in 10.0 mi SSE 12.7 mph 19.6 mph N/A   Clear
10:35 PM 86.4 °F 87.0 °F 63.0 °F 45% 29.82 in 10.0 mi SSE 9.2 mph 17.3 mph N/A   Clear
11:15 PM 85.8 °F 86.6 °F 63.1 °F 46% 29.82 in 10.0 mi SSE 9.2 mph 17.3 mph N/A   Clear
11:35 PM 84.7 °F 85.6 °F 63.3 °F 48% 29.82 in 10.0 mi SSE 12.7 mph 17.3 mph N/A   Clear
11:55 PM 84.2 °F 85.6 °F 64.0 °F 51% 29.83 in 10.0 mi SSE 13.8 mph 19.6 mph N/A   Clear